Flag for Germany Weather past 2 weeks in Herrenberg, Baden-Württemberg, Germany

46 °F

Partly cloudy.

Feels Like: 40 °F
Forecast: 45 / 48 °F
Wind: 14 mph from Southwest

Location: Stuttgart-Echterdingen

Current Time: Nov 29, 2015 at 7:10:56 PM

Latest Report: Nov 29, 2015 at 6:50 PM

Visibility: N/A

Pressure: 30.09 "Hg

Humidity: 82%

Dew point: 41 °F

Location of HerrenbergLocation

Historic Weather in Herrenberg — Graph


Herrenberg temperature yesterday

Maximum temperature yesterday: 39 °F (at 2:50 PM)
Minimum temperature yesterday: 28 °F (at 1:20 AM)
Average temperature yesterday: 34 °F

Past Weeks' High & Low Weather Summary

High68 °F (Nov 16, 1:20 PM)100% (Nov 20, 7:50 AM)30.33 "Hg (Nov 20, 7:50 AM)
Low23 °F (Nov 24, 2:20 AM)23% (Nov 16, 1:20 PM)29.36 "Hg (Nov 21, 2:50 PM)
Average43 °F81%29.96 "Hg
* Reported Nov 14 5:20 PM — Nov 29 5:50 PM, Herrenberg, Weather by CustomWeather, © 2015

Note: Actual official high and low records may vary slightly from our data, if they occured in-between our weather recording intervals... More about our weather records


Herrenberg weather history for previous 24 hours

Time TempWeatherWind HumidityBarometerVisibility
5:50 PM
Sun, Nov 29
46 °FPartly cloudy.17 mph82%30.09 "HgN/A
5:20 PM46 °FPartly cloudy.17 mph82%30.07 "HgN/A
4:50 PM46 °FLight rain. Partly cloudy.15 mph82%30.07 "HgN/A
4:20 PM46 °FBroken clouds.15 mph82%30.09 "HgN/A
3:50 PM46 °FBroken clouds.16 mph82%30.07 "HgN/A
3:20 PM45 °FPartly sunny.15 mph87%30.07 "HgN/A
2:50 PM45 °FPartly sunny.16 mph87%30.07 "HgN/A
2:20 PM45 °FPartly sunny.15 mph87%30.07 "HgN/A
1:50 PM45 °FLight rain. Partly sunny.15 mph87%30.07 "HgN/A
1:20 PM45 °FLight rain. Partly sunny.14 mph87%30.07 "HgN/A
12:50 PM45 °FLight rain. Broken clouds.14 mph81%30.07 "HgN/A
12:20 PM43 °FBroken clouds.16 mph87%30.07 "HgN/A
11:50 AM43 °FLight rain. Broken clouds.15 mph81%30.07 "HgN/A
11:20 AM41 °FBroken clouds.16 mph87%30.07 "HgN/A
10:20 AM39 °FBroken clouds.17 mph87%30.07 "HgN/A
9:50 AM39 °FLight rain. Partly sunny.15 mph87%30.07 "HgN/A
9:20 AM39 °FLight rain. Partly sunny.15 mph87%30.07 "HgN/A
7:50 AM41 °FLight rain. Partly cloudy.13 mph76%30.07 "HgN/A
7:20 AM41 °FLight rain. Passing clouds.14 mph76%30.04 "HgN/A
6:20 AM39 °FPassing clouds.12 mph75%30.04 "HgN/A
5:20 AM39 °FPartly cloudy.12 mph70%30.07 "HgN/A
4:50 AM39 °FPartly cloudy.10 mph70%30.07 "HgN/A
4:20 AM39 °FPassing clouds.12 mph70%30.07 "HgN/A
3:50 AM39 °FPassing clouds.12 mph70%30.07 "HgN/A
3:20 AM37 °FPassing clouds.9 mph75%30.09 "HgN/A
2:50 AM39 °FPassing clouds.10 mph70%30.09 "HgN/A
2:20 AM37 °FPassing clouds.10 mph75%30.09 "HgN/A
1:50 AM37 °FPassing clouds.6 mph75%30.12 "HgN/A
1:20 AM37 °FPassing clouds.6 mph75%30.12 "HgN/A
12:50 AM37 °FPassing clouds.9 mph75%30.12 "HgN/A
12:20 AM37 °FPassing clouds.8 mph75%30.12 "HgN/A
11:50 PM
Sat, Nov 28
37 °FPassing clouds.12 mph75%30.12 "HgN/A
10:50 PM36 °FPassing clouds.9 mph87%30.15 "HgN/A
10:20 PM36 °FPassing clouds.8 mph81%30.15 "HgN/A
9:20 PM36 °FPassing clouds.7 mph81%30.15 "HgN/A
8:50 PM34 °FPassing clouds.7 mph87%30.15 "HgN/A
8:20 PM34 °FPassing clouds.6 mph87%30.15 "HgN/A
7:50 PM34 °FPassing clouds.3 mph87%30.15 "HgN/A
7:20 PM34 °FPassing clouds.5 mph93%30.12 "HgN/A
Weather by CustomWeather, © 2015

See weather overviewHow to use our weather pages